Regional Weather Roundup
Issued by NWS Binghamton, NY

Home | Current Version | Previous Version | Text Only | Print | Product List | Glossary On
Versions: 1 2 3 4 5 6 7 8 9 10 11 12 13 14 15 16 17 18 19 20 21 22 23 24
000
ASUS41 KBGM 232210
RWRBGM

REGIONAL WEATHER ROUNDUP
NATIONAL WEATHER SERVICE BINGHAMTON NY
600 PM EDT THU MAR 23 2017

Note: "fair" indicates few or no clouds below 12,000 feet with no
significant weather and/or obstructions to visibility.

* = Station(s) that does not report precipitation, such as rain,
snow, etc, also no thunder or fog.

NYZ009-015>018-022>025-036-037-044>046-055>057-062-232300
...Central New York...

CITY           SKY/WX    TMP DP  RH WIND       PRES   REMARKS
Binghamton     SUNNY     32   3  29 CALM      30.41F
Cortland       FAIR      32   3  29 CALM      30.45F
Dansville      SUNNY     43   7  22 CALM      30.41F
Elmira         SUNNY     41   4  21 CALM      30.43F
Seneca Falls   CLEAR     36  10  35 CALM      30.49F
Ithaca         SUNNY     37   4  25 CALM      30.45F
Hamilton       SUNNY     32   3  29 CALM      30.45F
Monticello     SUNNY     34   1  25 W9        30.44F WCI  26
Norwich        SUNNY     34   0  23 N3        30.46S
Oneonta        SUNNY     30  -4  22 NW5       30.41S WCI  25
Penn Yan       SUNNY     35  11  36 VRB3      30.44F
Rome           SUNNY     32  10  40 W10       30.50F WCI  24
Sidney         SUNNY     36   1  23 W3        30.45F
Syracuse       SUNNY     33   7  33 SW3       30.49F
$$

PAZ038>040-043-044-047-048-072-232300
...Northeast Pennsylvania...

CITY           SKY/WX    TMP DP  RH WIND       PRES   REMARKS
Hazleton       SUNNY     36   7  30 CALM      30.47F
Scranton       SUNNY     38   7  27 CALM      30.47F
$$
&&
KEY
WCI = Wind Chill Index
VSB = Visibility
HX  = Heat Index
$$




USA.gov is the U.S. government's official web portal to all federal, state and local government web resources and services.